Time,TemperatureF,DewpointF,PressureIn,WindDirection,WindDirectionDegrees,WindSpeedMPH,WindSpeedGustMPH,Humidity,HourlyPrecipIn,Conditions,Clouds,dailyrainin,SoftwareType,DateUTC
2013-01-26 00:03:00,38.0,37.0,29.87,ENE,62,1.0,3.0,96,0.00,,,0.08,,2013-01-26 05:03:00,
2013-01-26 00:12:00,38.0,37.0,29.87,ENE,62,1.0,3.0,96,0.00,,,0.08,,2013-01-26 05:12:00,
2013-01-26 00:23:00,37.0,36.0,29.88,NE,39,0.0,3.0,95,0.00,,,0.08,,2013-01-26 05:23:00,
2013-01-26 00:33:00,36.0,34.0,29.88,SE,131,0.0,1.0,94,0.00,,,0.08,,2013-01-26 05:33:00,
2013-01-26 00:42:00,36.0,34.0,29.88,SE,131,0.0,1.0,94,0.00,,,0.08,,2013-01-26 05:42:00,
2013-01-26 00:53:00,36.0,34.0,29.88,SE,131,0.0,1.0,94,0.00,,,0.08,,2013-01-26 05:53:00,
2013-01-26 01:03:00,35.0,33.0,29.88,SE,126,1.0,4.0,92,0.00,,,0.08,,2013-01-26 06:03:00,
2013-01-26 01:12:00,35.0,33.0,29.88,SE,126,1.0,4.0,92,0.00,,,0.08,,2013-01-26 06:12:00,
2013-01-26 01:21:00,34.0,32.0,29.88,ESE,111,0.0,2.0,92,0.00,,,0.08,,2013-01-26 06:21:00,
2013-01-26 01:32:00,34.0,32.0,29.88,ESE,123,1.0,3.0,92,0.00,,,0.08,,2013-01-26 06:32:00,
2013-01-26 01:42:00,34.0,32.0,29.88,ESE,123,1.0,3.0,92,0.00,,,0.08,,2013-01-26 06:42:00,
2013-01-26 01:52:00,33.0,31.0,29.88,SW,236,0.0,2.0,92,0.00,,,0.08,,2013-01-26 06:52:00,
2013-01-26 02:02:00,32.0,30.0,29.88,SE,139,0.0,2.0,94,0.00,,,0.08,,2013-01-26 07:02:00,
2013-01-26 02:12:00,32.0,30.0,29.88,SE,139,0.0,2.0,94,0.00,,,0.08,,2013-01-26 07:12:00,
2013-01-26 02:22:00,32.0,30.0,29.88,SE,139,0.0,2.0,94,0.00,,,0.08,,2013-01-26 07:22:00,
2013-01-26 02:33:00,32.0,30.0,29.89,SE,132,0.0,2.0,94,0.00,,,0.08,,2013-01-26 07:33:00,
2013-01-26 02:42:00,32.0,30.0,29.89,SE,132,0.0,2.0,94,0.00,,,0.08,,2013-01-26 07:42:00,
2013-01-26 02:52:00,31.0,29.0,29.89,SSE,149,0.0,1.0,94,0.00,,,0.08,,2013-01-26 07:52:00,
2013-01-26 03:02:00,31.0,29.0,29.89,SSE,149,0.0,1.0,94,0.00,,,0.08,,2013-01-26 08:02:00,
2013-01-26 03:11:00,31.0,29.0,29.89,SSE,149,0.0,1.0,94,0.00,,,0.08,,2013-01-26 08:11:00,
2013-01-26 03:22:00,31.0,29.0,29.89,SSE,157,0.0,1.0,94,0.00,,,0.08,,2013-01-26 08:22:00,
2013-01-26 03:32:00,31.0,29.0,29.89,SE,133,0.0,1.0,93,0.00,,,0.08,,2013-01-26 08:32:00,
2013-01-26 03:42:00,31.0,29.0,29.89,SE,133,0.0,1.0,93,0.00,,,0.08,,2013-01-26 08:42:00,
2013-01-26 03:54:00,32.0,28.0,29.89,ESE,102,1.0,4.0,86,0.00,,,0.08,,2013-01-26 08:54:00,
2013-01-26 04:02:00,32.0,27.0,29.89,SE,129,1.0,4.0,83,0.00,,,0.08,,2013-01-26 09:02:00,
2013-01-26 04:11:00,32.0,27.0,29.89,SE,129,1.0,4.0,83,0.00,,,0.08,,2013-01-26 09:11:00,
2013-01-26 04:22:00,32.0,27.0,29.90,SSE,157,0.0,1.0,83,0.00,,,0.08,,2013-01-26 09:22:00,
2013-01-26 04:32:00,31.0,27.0,29.90,North,0,0.0,0.0,86,0.00,,,0.08,,2013-01-26 09:32:00,
2013-01-26 04:42:00,31.0,27.0,29.90,North,0,0.0,0.0,86,0.00,,,0.08,,2013-01-26 09:42:00,
2013-01-26 04:52:00,30.0,26.0,29.90,SE,125,0.0,1.0,86,0.00,,,0.08,,2013-01-26 09:52:00,
2013-01-26 05:01:00,30.0,27.0,29.90,SSW,210,0.0,1.0,87,0.00,,,0.08,,2013-01-26 10:01:00,
2013-01-26 05:12:00,30.0,27.0,29.90,SSW,210,0.0,1.0,87,0.00,,,0.08,,2013-01-26 10:12:00,
2013-01-26 05:21:00,30.0,27.0,29.90,SSW,210,0.0,1.0,87,0.00,,,0.08,,2013-01-26 10:21:00,
2013-01-26 05:32:00,30.0,26.0,29.90,SSE,161,0.0,1.0,85,0.00,,,0.08,,2013-01-26 10:32:00,
2013-01-26 05:42:00,30.0,26.0,29.90,SSE,161,0.0,1.0,85,0.00,,,0.08,,2013-01-26 10:42:00,
2013-01-26 05:52:00,30.0,25.0,29.91,South,178,1.0,2.0,82,0.00,,,0.08,,2013-01-26 10:52:00,
2013-01-26 06:02:00,30.0,25.0,29.91,South,178,1.0,2.0,82,0.00,,,0.08,,2013-01-26 11:02:00,
2013-01-26 06:12:00,30.0,25.0,29.91,South,178,1.0,2.0,82,0.00,,,0.08,,2013-01-26 11:12:00,
2013-01-26 06:22:00,31.0,25.0,29.91,SE,125,0.0,2.0,78,0.00,,,0.08,,2013-01-26 11:22:00,
2013-01-26 06:32:00,31.0,24.0,29.92,SE,126,0.0,2.0,76,0.00,,,0.08,,2013-01-26 11:32:00,
2013-01-26 06:42:00,31.0,24.0,29.92,SE,126,0.0,2.0,76,0.00,,,0.08,,2013-01-26 11:42:00,
2013-01-26 06:52:00,31.0,24.0,29.92,SE,126,0.0,2.0,76,0.00,,,0.08,,2013-01-26 11:52:00,
2013-01-26 07:02:00,30.0,23.0,29.93,SSW,203,0.0,2.0,74,0.00,,,0.08,,2013-01-26 12:02:00,
2013-01-26 07:12:00,30.0,23.0,29.93,SSW,203,0.0,2.0,74,0.00,,,0.08,,2013-01-26 12:12:00,
2013-01-26 07:23:00,30.0,24.0,29.94,NNE,22,0.0,2.0,77,0.00,,,0.08,,2013-01-26 12:23:00,
2013-01-26 07:33:00,30.0,24.0,29.94,NNE,22,0.0,2.0,77,0.00,,,0.08,,2013-01-26 12:33:00,
2013-01-26 07:42:00,30.0,24.0,29.94,NNE,22,0.0,2.0,77,0.00,,,0.08,,2013-01-26 12:42:00,
2013-01-26 07:53:00,30.0,23.0,29.94,North,2,0.0,2.0,75,0.00,,,0.08,,2013-01-26 12:53:00,
2013-01-26 08:03:00,30.0,23.0,29.94,ESE,121,0.0,1.0,76,0.00,,,0.08,,2013-01-26 13:03:00,
2013-01-26 08:12:00,30.0,23.0,29.94,ESE,121,0.0,1.0,76,0.00,,,0.08,,2013-01-26 13:12:00,
2013-01-26 08:22:00,30.0,24.0,29.95,South,172,0.0,2.0,77,0.00,,,0.08,,2013-01-26 13:22:00,
2013-01-26 08:33:00,29.0,24.0,29.96,South,183,0.0,2.0,81,0.00,,,0.08,,2013-01-26 13:33:00,
2013-01-26 08:42:00,29.0,24.0,29.96,South,183,0.0,2.0,81,0.00,,,0.08,,2013-01-26 13:42:00,
2013-01-26 08:52:00,29.0,23.0,29.95,NE,56,0.0,1.0,78,0.00,,,0.08,,2013-01-26 13:52:00,
2013-01-26 09:03:00,30.0,23.0,29.96,SW,227,0.0,2.0,75,0.00,,,0.08,,2013-01-26 14:03:00,
2013-01-26 09:12:00,30.0,23.0,29.96,SW,227,0.0,2.0,75,0.00,,,0.08,,2013-01-26 14:12:00,
2013-01-26 09:22:00,31.0,24.0,29.96,NE,55,0.0,2.0,74,0.00,,,0.08,,2013-01-26 14:22:00,
2013-01-26 09:32:00,32.0,23.0,29.98,North,4,1.0,4.0,70,0.00,,,0.08,,2013-01-26 14:32:00,
2013-01-26 09:43:00,32.0,23.0,29.98,North,4,1.0,4.0,70,0.00,,,0.08,,2013-01-26 14:43:00,
2013-01-26 09:53:00,32.0,24.0,29.98,North,11,0.0,3.0,71,0.00,,,0.08,,2013-01-26 14:53:00,
2013-01-26 10:03:00,32.0,24.0,29.99,NE,35,0.0,1.0,71,0.00,,,0.08,,2013-01-26 15:03:00,
2013-01-26 10:12:00,32.0,24.0,29.99,NE,35,0.0,1.0,71,0.00,,,0.08,,2013-01-26 15:12:00,
2013-01-26 10:22:00,33.0,23.0,30.00,NE,51,0.0,2.0,67,0.00,,,0.08,,2013-01-26 15:22:00,
2013-01-26 10:33:00,33.0,25.0,30.01,NNE,29,0.0,1.0,72,0.00,,,0.08,,2013-01-26 15:33:00,
2013-01-26 10:43:00,33.0,25.0,30.01,NNE,29,0.0,1.0,72,0.00,,,0.08,,2013-01-26 15:43:00,
2013-01-26 10:53:00,33.0,26.0,30.02,NE,50,1.0,2.0,74,0.00,,,0.08,,2013-01-26 15:53:00,
2013-01-26 11:02:00,34.0,26.0,30.02,NE,34,1.0,3.0,73,0.00,,,0.08,,2013-01-26 16:02:00,
2013-01-26 11:12:00,34.0,26.0,30.02,NE,34,1.0,3.0,73,0.00,,,0.08,,2013-01-26 16:12:00,
2013-01-26 11:22:00,35.0,20.0,30.02,NE,49,1.0,3.0,53,0.00,,,0.08,,2013-01-26 16:22:00,
2013-01-26 11:33:00,36.0,18.0,30.02,NE,48,1.0,4.0,47,0.00,,,0.08,,2013-01-26 16:33:00,
2013-01-26 11:43:00,36.0,18.0,30.02,NE,48,1.0,4.0,47,0.00,,,0.08,,2013-01-26 16:43:00,
2013-01-26 11:53:00,37.0,19.0,30.02,NNE,28,1.0,3.0,47,0.00,,,0.08,,2013-01-26 16:53:00,
2013-01-26 12:03:00,38.0,17.0,30.02,NE,43,1.0,3.0,42,0.00,,,0.08,,2013-01-26 17:03:00,
2013-01-26 12:13:00,38.0,17.0,30.02,NE,43,1.0,3.0,42,0.00,,,0.08,,2013-01-26 17:13:00,
2013-01-26 12:23:00,39.0,16.0,30.01,NNE,22,1.0,4.0,39,0.00,,,0.08,,2013-01-26 17:23:00,
2013-01-26 12:33:00,39.0,19.0,30.03,NW,326,1.0,3.0,45,0.00,,,0.08,,2013-01-26 17:33:00,
2013-01-26 12:42:00,39.0,19.0,30.03,NW,326,1.0,3.0,45,0.00,,,0.08,,2013-01-26 17:42:00,
2013-01-26 12:53:00,39.0,19.0,30.02,NNW,331,0.0,1.0,44,0.00,,,0.08,,2013-01-26 17:53:00,
2013-01-26 13:03:00,40.0,20.0,30.03,WSW,242,0.0,1.0,45,0.00,,,0.08,,2013-01-26 18:03:00,
2013-01-26 13:12:00,40.0,20.0,30.03,WSW,242,0.0,1.0,45,0.00,,,0.08,,2013-01-26 18:12:00,
2013-01-26 13:22:00,41.0,20.0,30.03,NNE,21,0.0,2.0,43,0.00,,,0.06,,2013-01-26 18:22:00,
2013-01-26 13:33:00,41.0,17.0,30.03,ENE,61,1.0,3.0,38,0.00,,,0.04,,2013-01-26 18:33:00,
2013-01-26 13:42:00,41.0,17.0,30.03,ENE,61,1.0,3.0,38,0.00,,,0.04,,2013-01-26 18:42:00,
2013-01-26 13:53:00,41.0,19.0,30.03,East,89,1.0,2.0,40,0.00,,,0.03,,2013-01-26 18:53:00,
2013-01-26 14:03:00,42.0,16.0,30.03,ENE,69,1.0,5.0,35,0.00,,,0.03,,2013-01-26 19:03:00,
2013-01-26 14:12:00,42.0,16.0,30.03,ENE,69,1.0,5.0,35,0.00,,,0.03,,2013-01-26 19:12:00,
2013-01-26 14:22:00,42.0,17.0,30.03,SE,139,1.0,2.0,36,0.00,,,0.03,,2013-01-26 19:22:00,
2013-01-26 14:33:00,43.0,20.0,30.02,East,89,1.0,4.0,40,0.00,,,0.03,,2013-01-26 19:33:00,
2013-01-26 14:42:00,43.0,20.0,30.02,East,89,1.0,4.0,40,0.00,,,0.03,,2013-01-26 19:42:00,
2013-01-26 14:52:00,44.0,21.0,30.02,NE,52,0.0,3.0,39,0.00,,,0.03,,2013-01-26 19:52:00,
2013-01-26 15:02:00,43.0,20.0,30.02,ESE,119,0.0,2.0,39,0.00,,,0.03,,2013-01-26 20:02:00,
2013-01-26 15:11:00,43.0,20.0,30.02,ESE,119,0.0,2.0,39,0.00,,,0.03,,2013-01-26 20:11:00,
2013-01-26 15:22:00,43.0,20.0,30.02,East,89,0.0,2.0,39,0.00,,,0.03,,2013-01-26 20:22:00,
2013-01-26 15:32:00,43.0,23.0,30.04,SE,142,0.0,1.0,44,0.00,,,0.03,,2013-01-26 20:32:00,
2013-01-26 15:42:00,43.0,23.0,30.04,SE,142,0.0,1.0,44,0.00,,,0.03,,2013-01-26 20:42:00,
2013-01-26 15:52:00,44.0,22.0,30.04,ESE,102,0.0,2.0,41,0.00,,,0.03,,2013-01-26 20:52:00,
2013-01-26 16:02:00,44.0,21.0,30.04,ESE,113,0.0,2.0,40,0.00,,,0.03,,2013-01-26 21:02:00,
2013-01-26 16:12:00,44.0,21.0,30.04,ESE,113,0.0,2.0,40,0.00,,,0.03,,2013-01-26 21:12:00,
2013-01-26 16:23:00,43.0,22.0,30.05,ESE,107,0.0,2.0,43,0.00,,,0.03,,2013-01-26 21:23:00,
2013-01-26 16:32:00,43.0,22.0,30.05,ESE,103,0.0,2.0,43,0.00,,,0.03,,2013-01-26 21:32:00,
2013-01-26 16:42:00,43.0,22.0,30.05,ESE,103,0.0,2.0,43,0.00,,,0.03,,2013-01-26 21:42:00,
2013-01-26 16:52:00,43.0,23.0,30.05,SE,126,0.0,1.0,44,0.00,,,0.02,,2013-01-26 21:52:00,
2013-01-26 17:02:00,43.0,23.0,30.05,SE,126,0.0,1.0,44,0.00,,,0.02,,2013-01-26 22:02:00,
2013-01-26 17:12:00,43.0,23.0,30.05,SE,126,0.0,1.0,44,0.00,,,0.02,,2013-01-26 22:12:00,
2013-01-26 17:22:00,42.0,22.0,30.06,East,83,0.0,3.0,45,0.00,,,0.01,,2013-01-26 22:22:00,
2013-01-26 17:32:00,42.0,24.0,30.06,ESE,117,0.0,1.0,48,0.00,,,0.00,,2013-01-26 22:32:00,
2013-01-26 17:42:00,42.0,24.0,30.06,ESE,117,0.0,1.0,48,0.00,,,0.00,,2013-01-26 22:42:00,
2013-01-26 17:52:00,41.0,24.0,30.06,South,172,0.0,1.0,51,0.00,,,0.00,,2013-01-26 22:52:00,
2013-01-26 18:02:00,41.0,26.0,30.06,SE,138,1.0,1.0,54,0.00,,,0.00,,2013-01-26 23:02:00,
2013-01-26 18:12:00,41.0,26.0,30.06,SE,138,1.0,1.0,54,0.00,,,0.00,,2013-01-26 23:12:00,
2013-01-26 18:22:00,40.0,23.0,30.06,SE,134,0.0,1.0,51,0.00,,,0.00,,2013-01-26 23:22:00,
2013-01-26 18:32:00,39.0,27.0,30.07,South,190,1.0,1.0,61,0.00,,,0.00,,2013-01-26 23:32:00,
2013-01-26 18:42:00,39.0,27.0,30.07,South,190,1.0,1.0,61,0.00,,,0.00,,2013-01-26 23:42:00,
2013-01-26 18:52:00,38.0,26.0,30.08,SSW,207,0.0,1.0,61,0.00,,,0.00,,2013-01-26 23:52:00,
2013-01-26 19:02:00,38.0,26.0,30.08,SSW,207,0.0,1.0,61,0.00,,,0.00,,2013-01-27 00:02:00,
2013-01-26 19:12:00,38.0,26.0,30.08,SSW,207,0.0,1.0,61,0.00,,,0.00,,2013-01-27 00:12:00,
2013-01-26 19:22:00,37.0,27.0,30.09,SSW,206,0.0,1.0,66,0.00,,,0.00,,2013-01-27 00:22:00,
2013-01-26 19:32:00,37.0,27.0,30.09,SSW,206,0.0,1.0,67,0.00,,,0.00,,2013-01-27 00:32:00,
2013-01-26 19:42:00,37.0,27.0,30.09,SSW,206,0.0,1.0,67,0.00,,,0.00,,2013-01-27 00:42:00,
2013-01-26 19:52:00,36.0,27.0,30.09,SSW,206,0.0,1.0,70,0.00,,,0.00,,2013-01-27 00:52:00,
2013-01-26 20:01:00,35.0,27.0,30.10,North,0,0.0,0.0,73,0.00,,,0.00,,2013-01-27 01:01:00,
2013-01-26 20:11:00,35.0,27.0,30.10,North,0,0.0,0.0,73,0.00,,,0.00,,2013-01-27 01:11:00,
2013-01-26 20:22:00,34.0,26.0,30.10,North,0,0.0,0.0,73,0.00,,,0.00,,2013-01-27 01:22:00,
2013-01-26 20:32:00,34.0,27.0,30.10,North,0,0.0,0.0,75,0.00,,,0.00,,2013-01-27 01:32:00,
2013-01-26 20:42:00,34.0,27.0,30.10,North,0,0.0,0.0,75,0.00,,,0.00,,2013-01-27 01:42:00,
2013-01-26 20:52:00,32.0,26.0,30.10,North,0,0.0,0.0,77,0.00,,,0.00,,2013-01-27 01:52:00,
2013-01-26 21:01:00,32.0,26.0,30.10,North,0,0.0,0.0,77,0.00,,,0.00,,2013-01-27 02:01:00,
2013-01-26 21:12:00,32.0,26.0,30.10,North,0,0.0,0.0,77,0.00,,,0.00,,2013-01-27 02:12:00,
2013-01-26 21:22:00,31.0,25.0,30.11,North,0,0.0,0.0,78,0.00,,,0.00,,2013-01-27 02:22:00,
2013-01-26 21:32:00,31.0,25.0,30.11,North,0,0.0,0.0,79,0.00,,,0.00,,2013-01-27 02:32:00,
2013-01-26 21:42:00,31.0,25.0,30.11,North,0,0.0,0.0,79,0.00,,,0.00,,2013-01-27 02:42:00,
2013-01-26 21:52:00,31.0,25.0,30.11,North,0,0.0,0.0,79,0.00,,,0.00,,2013-01-27 02:52:00,
2013-01-26 22:02:00,30.0,24.0,30.12,North,0,0.0,0.0,79,0.00,,,0.00,,2013-01-27 03:02:00,
2013-01-26 22:11:00,30.0,24.0,30.12,North,0,0.0,0.0,79,0.00,,,0.00,,2013-01-27 03:11:00,
2013-01-26 22:21:00,29.0,24.0,30.12,North,0,0.0,0.0,81,0.00,,,0.00,,2013-01-27 03:21:00,
2013-01-26 22:32:00,29.0,25.0,30.12,North,0,0.0,0.0,83,0.00,,,0.00,,2013-01-27 03:32:00,
2013-01-26 22:42:00,29.0,25.0,30.12,North,0,0.0,0.0,83,0.00,,,0.00,,2013-01-27 03:42:00,
2013-01-26 22:52:00,28.0,24.0,30.13,North,0,0.0,0.0,83,0.00,,,0.00,,2013-01-27 03:52:00,
2013-01-26 23:02:00,28.0,24.0,30.14,North,0,0.0,0.0,85,0.00,,,0.00,,2013-01-27 04:02:00,
2013-01-26 23:12:00,28.0,24.0,30.14,North,0,0.0,0.0,85,0.00,,,0.00,,2013-01-27 04:12:00,
2013-01-26 23:22:00,28.0,24.0,30.13,North,0,0.0,0.0,84,0.00,,,0.00,,2013-01-27 04:22:00,
2013-01-26 23:32:00,27.0,23.0,30.14,North,0,0.0,0.0,85,0.00,,,0.00,,2013-01-27 04:32:00,
2013-01-26 23:42:00,27.0,23.0,30.14,North,0,0.0,0.0,85,0.00,,,0.00,,2013-01-27 04:42:00,
2013-01-26 23:51:00,27.0,23.0,30.14,North,0,0.0,0.0,85,0.00,,,0.00,,2013-01-27 04:51:00,